CAPE
0 0 0 0 0 0 0 0 0 0 0 0 0 0 0 0 0 0 0 0 0 0 0 0 0 0 0 0 0 0 0 0 0 0 0 2 0 0 0 0 15 118 406 519 634 734 795 880 1001 1123 1287 1474 1641 1770 1854 1910 1967 1992 1938 1911 1823 1824 1910 1864 1940 1726 1468 603 191 242 286 337 518 718 697 448 129 16 21 1 7 0 0 0 0 0 0
0 0 0 0 0 0 0 0 0 0 0 0 0 0 0 0 0 0 0 0 0 0 0 0 0 0 0 0 0 0 0 17 93 0 0 54 80 0 0 91 12 151 373 472 569 656 750 880 1020 1145 1293 1474 1627 1728 1792 1858 1914 1921 1903 1889 1881 1774 1714 1658 1645 1400 822 202 254 334 324 34 466 720 771 572 209 12 0 0 0 0 0 0 0 0 0
0 0 0 0 0 0 0 0 0 0 0 0 0 0 0 0 0 0 0 0 0 0 0 0 0 0 0 0 0 0 0 73 49 0 65 159 167 173 224 235 263 306 315 430 510 602 722 864 1026 1175 1324 1488 1635 1728 1774 1822 1844 1858 1831 1839 1774 1815 1774 1469 1226 1493 896 284 419 214 38 7 471 670 741 657 444 191 122 0 0 0 0 0 0 0 0
0 0 0 0 0 0 0 0 0 0 0 0 0 0 0 0 0 0 0 0 0 0 0 0 0 0 0 0 0 0 28 62 77 0 206 204 190 222 246 282 304 341 352 438 525 623 718 841 1000 1186 1354 1502 1619 1712 1766 1798 1803 1796 1787 1784 1782 1569 1387 1379 1244 1406 1271 771 536 262 138 388 533 635 696 690 530 400 212 0 0 0 0 0 0 0 0
0 0 0 0 0 0 0 0 0 0 0 0 0 0 0 0 0 0 0 0 0 0 0 0 0 0 0 0 0 0 58 136 185 243 249 218 248 243 257 91 172 358 420 515 581 648 744 850 1000 1184 1377 1530 1626 1687 1724 1749 1749 1755 1762 1739 1616 1686 1686 1525 1378 1087 1239 916 370 285 443 502 598 621 725 785 609 462 219 0 0 0 0 0 0 0 0
0 0 0 0 0 0 0 0 0 0 0 0 0 0 0 0 0 0 0 0 0 0 0 0 0 0 0 0 0 0 0 79 212 292 278 261 260 270 217 162 293 366 454 545 640 718 804 922 1040 1201 1421 1593 1654 1684 1732 1735 1741 1749 1715 1650 1640 1642 1633 1612 1596 1537 1048 903 610 328 429 630 636 695 760 788 635 598 499 0 0 0 0 173 390 0 0
0 0 0 0 0 0 0 0 0 0 0 0 0 0 0 0 0 0 0 0 0 0 0 0 0 0 0 0 0 0 0 123 188 242 304 319 313 332 348 381 426 480 520 570 668 800 889 1014 1234 1420 1556 1662 1735 1761 1769 1776 1768 1754 1722 1694 1646 1640 1626 1572 1582 1558 1353 929 872 633 228 503 650 738 809 777 714 673 478 0 0 1 50 373 348 0 0
0 0 0 0 0 0 0 0 0 1 0 0 0 2 0 0 0 0 0 0 0 0 0 0 0 0 0 0 0 0 0 4 36 84 264 321 392 448 486 510 554 605 622 674 720 791 882 1041 1314 1568 1708 1755 1804 1846 1828 1844 1811 1802 1798 1746 1703 1712 1666 1654 1666 1710 1524 1088 924 654 283 377 646 703 743 796 845 752 243 2 67 337 438 439 349 6 1
0 0 0 0 0 6 0 0 2 0 3 0 4 8 6 2 2 0 0 0 0 0 0 0 0 0 0 0 3 0 0 0 0 122 294 363 469 562 614 614 651 671 697 764 847 960 1020 1114 1200 1479 1692 1814 1874 1915 1933 1922 1949 1933 1912 1868 1863 1844 1862 1852 1829 1912 1643 1237 896 527 260 309 532 724 768 706 682 498 4 5 232 412 488 504 475 188 11
2 11 8 0 6 10 0 0 0 0 2 45 10 17 13 10 83 55 44 72 4 0 0 0 1 0 0 0 0 0 0 0 102 190 237 376 510 620 645 714 862 1057 1206 1317 1568 1545 1497 1408 1349 1317 1553 1770 1892 1983 2026 2052 2057 2071 2033 2027 1999 2007 1969 1911 1829 1744 1516 1195 1023 435 84 259 480 605 379 98 120 76 257 168 354 454 487 558 608 513 215
0 9 2 8 0 1 0 0 0 68 108 78 95 5 52 128 120 161 58 106 83 0 0 0 0 0 0 0 0 0 0 67 79 125 271 323 511 652 731 829 950 1174 1474 1782 1932 1840 1682 1499 1341 1335 1416 1646 1818 1916 1983 2019 2048 2070 2043 2029 2040 2032 2054 2016 1970 1908 1541 1314 1030 516 151 285 364 194 62 106 108 31 424 563 564 536 583 714 803 701 699
15 24 9 10 118 165 31 0 40 71 170 99 30 66 64 144 124 104 44 156 120 0 0 0 0 0 0 0 0 0 77 76 79 185 242 258 280 372 361 576 1002 1456 1663 1830 1840 1717 1509 1534 1403 1377 1417 1484 1615 1718 1801 1861 1918 1946 1972 1958 1982 1990 2013 2041 1974 1642 1510 1098 844 404 243 400 120 7 19 36 50 266 503 482 482 563 654 810 958 872 941
34 20 60 188 148 217 168 0 162 80 104 60 13 21 131 122 132 143 162 158 134 55 0 0 0 0 4 104 289 233 44 740 1421 1716 1758 1578 1395 1324 1228 1118 1187 1267 1468 1509 1518 1700 1702 1554 1429 1431 1414 1452 1495 1536 1604 1665 1722 1779 1807 1828 1866 1890 1911 1941 1912 1799 1428 1124 999 710 634 316 110 134 102 101 62 188 330 405 525 659 851 925 955 1057 1151
44 39 157 55 226 177 164 266 148 97 43 1 10 217 116 162 150 153 221 216 164 46 267 396 580 784 979 1054 1044 1149 1298 1512 1732 1702 1893 2016 2002 2034 1688 1342 1110 1299 1459 1472 1504 1700 1747 1665 1521 1486 1476 1453 1496 1520 1550 1555 1610 1626 1673 1692 1700 1734 1720 1786 1768 1549 1180 1095 1253 1257 1091 674 286 237 236 161 220 413 516 617 727 850 957 1062 1167 1275 1233
65 12 71 185 277 102 262 88 154 36 123 12 58 184 172 183 183 170 182 195 262 301 383 542 784 1028 1191 1335 1508 1655 1826 1946 2055 2116 2140 2327 2481 2426 2072 1656 1511 1383 1484 1566 1590 1737 1716 1682 1625 1599 1542 1508 1504 1544 1505 1518 1563 1648 1684 1754 1780 1679 1637 1676 1671 1333 1079 1040 1128 1053 1138 1088 660 371 209 304 458 596 754 880 1001 1121 1203 1255 1332 1346 1207
58 74 22 93 474 362 112 103 108 58 24 20 75 125 178 170 189 174 175 178 197 234 298 428 524 599 685 788 941 1186 1553 1925 2146 2298 2382 2424 2570 2604 2601 2478 2298 2164 2005 1878 1878 1799 1811 1787 1745 1701 1593 1600 1618 1612 1642 1580 1712 1872 1923 1856 1630 1462 1433 1430 1419 1190 916 938 970 948 994 1072 1088 1042 759 502 656 816 990 1143 1257 1330 1412 1446 1393 1200 1008
18 29 48 142 128 185 68 97 85 91 49 24 43 248 294 191 97 195 223 243 262 182 174 152 216 352 602 734 784 823 1062 1460 1673 1754 1875 1960 2167 2432 2528 2582 2442 2392 2390 2453 2213 2020 1948 1983 1980 1970 1917 1816 1891 1896 1843 1852 1898 1863 1794 1624 1394 1200 1084 1023 1079 1003 778 694 703 734 895 1022 1044 872 592 705 848 1086 1234 1374 1454 1509 1518 1390 1175 1026 866
0 15 0 108 33 69 110 85 84 31 14 40 44 38 230 59 70 34 23 151 136 164 196 198 220 156 202 409 463 558 775 1044 1274 1426 1544 1725 1913 1908 2176 2370 2570 2643 2675 2620 2529 2364 2278 2148 2141 2134 2152 2140 2002 1935 1928 1997 1897 1646 1454 1264 1081 843 776 800 822 819 653 606 651 768 937 860 667 742 898 1102 1303 1503 1579 1602 1581 1459 1340 1248 1177 872 763
6 18 2 76 5 27 67 24 17 24 0 26 56 60 76 58 48 34 52 46 56 68 64 42 105 98 381 431 485 532 601 706 867 1091 1278 1330 1436 1753 2110 2174 2314 2533 2651 2591 2470 2314 2382 2286 2238 2182 2178 2221 2224 2082 2111 2026 1700 1311 1119 1070 856 642 645 641 584 595 599 586 598 624 638 670 807 1001 1210 1520 1655 1660 1625 1522 1406 1376 1352 1133 844 753 657
1 0 0 2 0 14 4 17 12 6 0 67 8 20 60 47 42 22 32 12 70 72 57 34 44 33 162 271 431 594 721 749 774 951 1052 1056 1263 1313 1433 1880 2076 2320 2415 2512 2388 2374 2354 2308 2235 2218 2193 2205 2188 2150 2148 1947 1418 1146 1050 941 711 546 534 444 432 461 368 734 379 183 552 788 1058 1334 1636 1774 1734 1644 1470 1419 1451 1413 1146 862 742 608 450
2 0 0 0 3 14 2 4 0 0 0 42 1 56 73 68 80 88 102 117 105 74 67 60 64 70 70 72 78 90 117 548 528 502 96 623 646 871 1159 1250 1528 1780 1946 2096 2181 2212 2267 2278 2253 2123 2088 2030 1990 1983 1822 1520 1369 1047 976 1037 866 598 593 577 537 377 240 786 567 514 663 1224 1604 1780 1865 1882 1642 1516 1468 1468 1431 1184 917 716 551 434 370
0 4 5 0 4 1 2 2 2 8 0 0 0 0 0 0 9 76 93 92 85 85 64 40 22 31 43 58 62 60 346 624 694 694 707 732 753 830 978 1113 1392 1618 1806 2024 2174 2299 2404 2380 2244 2032 1791 1684 1603 1584 1550 1490 1368 900 933 1118 1092 970 792 680 424 378 580 820 1136 1450 1694 1824 1866 1644 1542 1532 1555 1463 1515 1369 1134 945 724 537 398 336 308
0 206 308 0 0 0 0 0 0 0 0 0 0 0 0 0 0 12 35 53 46 10 3 0 376 490 459 456 478 552 585 663 728 753 725 626 636 678 714 850 1031 1269 1547 1788 2025 2124 2156 2141 2033 1706 1431 1375 1403 1411 1452 1478 1211 846 794 988 1006 924 824 874 1012 1369 1776 1752 1828 1641 1322 1083 892 922 997 932 1326 1367 1207 1056 894 694 512 387 340 318 264
28 186 25 0 0 0 0 0 0 0 0 0 0 0 0 0 0 0 0 0 0 0 0 0 0 101 220 326 482 597 654 629 600 695 742 638 605 596 615 673 824 1012 1210 1385 1587 1731 1754 1741 1652 1402 1295 1315 1377 1370 1262 1135 906 675 583 733 823 764 575 832 954 810 1127 1008 1148 528 0 0 105 627 1068 1431 1207 802 631 553 444 342 287 264 210 0 0
25 0 0 264 22 0 0 0 0 0 0 0 0 0 0 0 0 0 0 0 0 0 0 0 0 0 0 0 0 114 519 550 704 788 699 733 684 656 621 632 712 819 968 1112 1250 1374 1460 1478 1448 1350 1298 1300 1250 1132 975 849 686 589 458 346 525 505 337 2 392 1363 773 882 782 607 469 514 698 1052 1299 1117 848 563 11 235 180 138 140 124 0 0 0
29 1 0 8 19 42 0 0 0 0 0 0 0 0 0 0 0 0 0 0 0 0 0 0 0 0 0 0 0 0 0 229 648 637 582 634 690 672 672 663 654 714 819 950 1059 1177 1310 1440 1404 1199 1099 1083 988 879 794 688 606 586 421 109 0 0 0 8 417 984 1132 1262 1373 1259 1278 1219 1122 1206 1123 891 607 299 301 260 174 155 0 0 0 0 0
10 18 0 116 4 152 2 0 1 0 0 0 0 0 0 0 0 2 0 0 0 0 0 0 0 0 0 0 0 0 0 0 178 478 399 117 335 676 725 736 686 671 769 869 950 1060 1298 1390 1138 984 911 922 838 758 695 610 551 424 262 0 0 30 302 685 457 906 1178 1520 1782 1604 1428 1260 1154 1024 846 654 334 302 282 223 218 244 197 133 35 0 0
0 12 28 110 166 224 176 93 0 0 24 73 60 126 43 57 144 79 20 0 0 0 0 0 0 0 0 0 0 0 0 0 0 54 50 30 0 280 738 778 768 739 743 834 905 1032 1302 1180 980 894 854 850 834 767 712 640 443 165 0 0 3 100 986 1048 403 869 1270 1326 1239 1100 864 852 740 635 512 369 366 361 320 298 308 299 202 162 151 24 0
30 26 8 14 56 23 0 0 0 0 0 0 0 48 48 68 46 32 16 4 0 0 0 0 0 0 0 0 0 0 0 0 0 0 0 0 0 8 630 766 772 814 795 860 910 962 1135 1087 999 948 888 771 728 647 505 245 55 0 2 9 174 567 742 587 557 650 609 650 534 512 455 430 432 466 456 441 466 427 387 364 339 274 226 205 125 3 0
16 39 0 0 7 8 19 3 0 0 0 0 2 17 37 43 56 13 11 2 0 0 0 0 0 0 0 0 0 0 0 0 0 0 0 0 0 0 0 657 743 769 830 901 944 996 1030 1032 1028 932 798 658 524 122 0 0 0 6 28 72 236 455 328 64 10 302 358 418 416 472 482 485 516 422 418 395 358 344 372 314 284 275 224 8 3 1 1
2 16 10 1 0 0 0 0 0 0 0 1 6 12 19 35 46 3 0 0 0 0 0 0 0 0 0 0 0 0 0 0 0 0 0 0 0 0 0 153 632 735 773 844 874 969 1052 1064 999 891 722 512 187 334 67 0 0 2 150 328 314 75 38 4 8 11 13 286 344 312 309 290 275 285 267 240 234 277 288 284 140 4 11 2 3 8 6
0 2 0 0 0 0 0 0 0 0 0 0 0 0 0 0 0 0 0 0 0 0 0 0 0 0 0 0 0 0 0 0 0 0 0 0 0 0 0 0 0 683 669 802 887 924 956 998 978 654 489 449 357 242 0 0 156 294 321 114 34 14 3 0 8 12 99 163 181 199 208 194 180 200 225 210 184 176 67 54 30 16 14 8 2 3 5
0 0 0 0 0 1 0 0 0 0 0 0 0 0 0 0 0 0 0 0 0 0 0 0 0 0 0 0 0 0 0 0 0 0 0 0 0 0 0 0 0 0 320 642 803 930 959 930 734 482 180 0 102 0 0 0 156 240 245 250 222 182 160 164 184 148 188 156 196 82 71 2 24 73 207 59 28 28 54 77 76 64 40 13 4 2 1
0 0 0 0 0 0 0 0 0 0 0 0 0 0 0 0 0 0 0 0 0 0 0 0 0 0 0 0 0 0 0 0 0 0 0 0 0 0 0 0 0 0 0 496 700 840 918 970 844 556 389 362 371 435 429 332 369 352 212 270 112 40 5 216 188 164 155 164 168 58 2 0 0 0 6 48 10 1 26 61 68 32 10 1 1 1 2
0 0 0 0 0 0 0 0 0 0 0 0 0 0 0 0 0 0 0 0 0 0 0 0 0 0 0 0 0 0 0 0 0 0 0 0 0 0 0 0 0 0 0 0 556 696 753 824 764 614 491 484 519 474 234 379 316 362 292 328 249 4 40 84 92 185 197 49 45 0 0 0 0 10 4 0 0 0 6 16 20 2 0 0 0 0 0
0 0 0 0 0 0 0 0 0 0 0 0 0 0 0 0 0 0 0 0 0 0 0 0 0 0 0 0 0 0 0 0 0 0 0 0 0 0 0 0 0 0 0 0 0 79 584 615 603 584 597 614 596 511 84 61 321 406 198 69 236 118 178 202 183 149 10 0 0 0 0 15 8 10 1 0 0 0 0 4 1 0 0 0 0 0 0
0 0 0 0 0 0 0 0 0 0 0 0 0 0 0 0 0 0 0 0 0 0 0 0 0 0 0 0 0 0 1 1 1 0 0 0 0 0 0 0 0 0 0 0 0 0 0 464 566 555 588 597 405 181 152 290 343 285 254 52 102 177 237 16 4 0 0 0 0 0 20 12 0 4 8 0 0 0 0 0 0 0 0 0 0 0 0
0 0 0 0 0 0 0 0 0 0 0 0 0 0 0 0 0 0 0 0 0 0 0 0 0 0 0 0 0 0 0 1 0 0 0 0 0 0 0 0 0 0 0 0 0 0 255 369 378 374 2 30 211 241 263 282 303 315 302 212 70 7 11 4 4 0 0 0 3 2 0 0 0 0 0 0 0 0 0 0 0 0 0 0 0 0 2
0 0 0 0 0 0 0 0 0 0 0 0 0 0 0 0 0 0 0 0 0 0 0 0 0 0 0 0 0 0 0 0 0 0 0 0 0 0 0 0 0 0 0 0 0 0 154 86 4 0 0 0 73 318 636 455 310 247 52 0 4 13 14 8 2 0 0 0 0 0 0 0 0 0 0 0 0 0 0 0 0 0 0 0 0 0 0
0 0 0 0 0 0 0 0 0 0 0 0 0 0 0 0 0 0 0 0 0 0 0 0 0 0 0 0 0 0 0 0 0 0 0 0 0 0 0 0 0 0 0 0 0 5 107 59 1 0 2 1 136 468 674 297 131 62 0 0 4 12 3 0 0 0 0 0 6 1 0 0 0 0 0 0 0 0 0 2 2 0 0 0 0 0 0
0 0 0 0 0 0 0 0 0 0 0 0 0 0 0 0 0 0 0 0 0 0 0 0 0 0 0 0 0 0 0 0 0 0 0 0 0 0 0 0 0 0 0 0 2 76 100 6 0 0 80 126 231 352 343 256 0 0 0 0 0 0 0 0 0 0 0 0 3 0 0 0 0 0 1 1 1 0 0 0 0 0 0 0 0 0 0
0 0 0 0 0 0 0 0 0 0 0 0 0 0 0 0 0 0 0 0 0 0 0 0 4 3 0 0 0 0 0 0 0 0 0 0 0 0 0 0 0 0 46 133 146 86 22 0 0 0 0 0 0 28 0 0 0 0 0 0 0 0 0 0 1 0 0 2 0 0 0 0 0 5 10 12 14 14 10 2 0 0 0 0 0 0 0
0 0 0 0 0 0 0 0 0 0 0 0 0 0 0 0 0 0 0 0 0 0 0 0 0 0 0 0 0 0 0 0 0 0 0 0 0 0 0 0 0 0 94 38 2 0 0 0 0 0 2 0 1 0 0 0 0 0 0 0 2 1 2 16 24 19 18 20 22 22 3 0 0 3 17 26 28 27 21 16 13 11 8 5 4 1 0
0 0 0 0 0 0 0 0 0 0 0 0 0 0 0 0 0 0 0 0 0 0 0 0 0 0 0 0 0 0 0 0 0 0 0 0 0 0 0 0 0 60 228 124 2 0 0 0 0 0 0 3 0 0 0 0 0 0 0 0 0 0 0 0 0 0 0 0 0 0 0 0 0 0 0 0 0 0 0 0 0 0 0 1 2 6 3
0 0 0 0 0 0 0 0 0 0 0 0 0 0 0 0 0 0 0 0 0 0 0 0 0 0 0 0 0 0 0 0 0 0 0 0 0 0 0 19 19 8 120 355 0 0 0 0 0 5 217 139 0 0 0 0 0 0 0 0 0 0 0 0 0 0 0 0 0 0 0 0 0 0 0 0 0 0 0 0 0 0 0 0 0 0 0
0 0 0 8 0 0 0 0 0 0 0 0 0 0 0 0 0 0 0 0 0 0 0 0 0 0 0 0 0 0 0 0 0 0 0 0 0 0 0 55 116 264 250 448 193 0 0 0 0 9 227 636 32 0 0 0 0 0 0 0 0 0 0 0 0 0 0 0 0 0 0 0 0 0 0 0 0 0 0 0 0 0 0 0 0 0 0
0 0 0 0 0 0 0 0 0 2 0 0 0 0 0 0 0 0 0 0 0 0 0 0 0 0 0 0 0 0 0 0 0 0 0 0 0 0 157 474 591 706 568 365 213 42 0 0 0 3 162 712 110 0 0 0 0 0 0 0 0 0 0 0 0 0 0 0 0 0 0 0 0 0 0 0 0 0 0 0 0 0 0 0 0 0 0
0 0 0 0 0 0 0 0 0 0 0 0 0 0 0 0 0 0 0 0 0 0 0 0 0 0 0 0 0 0 0 0 0 0 0 0 0 0 0 146 504 675 392 142 116 64 0 0 0 0 80 311 40 0 0 0 0 0 0 0 0 0 0 0 0 0 0 0 0 0 0 0 0 0 0 0 0 0 0 0 0 0 0 0 0 0 0
0 0 0 0 0 1 13 21 20 28 6 0 0 0 0 0 0 0 0 0 0 4 6 0 0 0 0 0 3 0 0 0 0 1 0 21 0 0 0 55 338 632 257 46 10 1 4 0 0 0 77 700 8 0 0 0 0 0 0 0 0 0 0 0 0 0 0 0 0 0 0 0 0 0 0 0 0 0 0 0 0 0 0 0 0 0 0
0 1 0 0 0 5 6 6 4 14 0 9 17 2 2 29 26 10 10 10 5 53 32 4 0 0 0 0 0 0 0 3 0 0 9 17 120 85 0 0 0 255 277 52 0 11 24 10 0 4 46 249 86 0 0 0 0 0 0 0 0 0 0 0 0 0 0 0 0 0 0 0 0 0 0 0 0 0 0 0 0 0 0 0 0 0 0
3 3 0 0 0 8 0 0 8 42 50 49 46 46 50 49 44 57 41 35 36 34 26 8 2 0 0 0 0 0 0 4 32 48 64 90 111 207 450 130 4 30 140 114 74 23 0 0 0 0 12 9 0 0 0 0 0 0 0 0 0 0 0 0 0 0 0 0 0 0 0 0 0 0 0 0 0 0 0 0 0 0 0 0 0 0 0
0 0 0 0 0 0 0 0 16 47 54 61 56 43 37 44 49 36 9 58 59 22 12 2 1 0 0 0 0 0 0 4 6 39 159 389 322 203 149 242 256 177 74 34 2 0 0 6 0 0 0 0 0 0 0 0 0 0 0 0 0 0 0 0 0 0 0 0 2 4 5 4 2 0 0 1 0 0 0 0 0 0 0 0 0 0 0
Wind_Speed
nan nan nan nan nan nan nan nan nan nan nan nan nan nan nan nan nan nan nan nan nan nan nan nan nan nan nan nan nan nan nan nan nan nan nan nan nan nan nan nan nan 19 20 21 22 21 20 17 16 17 18 20 22 23 26 28 31 32 34 36 38 41 44 48 50 56 61 50 40 34 35 36 35 34 32 31 31 nan nan nan nan nan nan nan nan nan nan
nan nan nan nan nan nan nan nan nan nan nan nan nan nan nan nan nan nan nan nan nan nan nan nan nan nan nan nan nan nan nan nan nan nan nan nan nan nan nan nan nan 20 21 22 22 23 23 21 18 18 19 22 24 27 28 30 32 33 36 38 42 45 48 53 59 60 57 49 38 35 37 nan 39 37 34 32 32 nan nan nan nan nan nan nan nan nan nan
nan nan nan nan nan nan nan nan nan nan nan nan nan nan nan nan nan nan nan nan nan nan nan nan nan nan nan nan nan nan nan nan nan nan nan 21 22 20 19 21 21 21 22 22 22 23 25 24 23 22 23 25 27 29 30 30 31 34 37 40 44 51 58 58 55 56 57 51 39 38 nan nan 42 41 36 34 33 30 27 nan nan nan nan nan nan nan nan
nan nan nan nan nan nan nan nan nan nan nan nan nan nan nan nan nan nan nan nan nan nan nan nan nan nan nan nan nan nan nan nan nan nan 22 23 23 21 21 24 24 23 23 23 24 25 27 27 27 25 26 29 31 31 30 28 30 33 37 43 52 57 58 56 56 58 55 47 41 41 40 40 41 41 37 36 33 28 28 nan nan nan nan nan nan nan nan
nan nan nan nan nan nan nan nan nan nan nan nan nan nan nan nan nan nan nan nan nan nan nan nan nan nan nan nan nan nan nan 27 29 28 27 27 24 21 24 nan 26 25 26 25 25 27 29 30 30 28 30 32 33 32 30 28 32 37 44 51 54 55 55 56 57 59 55 45 46 40 36 38 39 36 35 34 30 28 28 nan nan nan nan nan nan nan nan
nan nan nan nan nan nan nan nan nan nan nan nan nan nan nan nan nan nan nan nan nan nan nan nan nan nan nan nan nan nan nan nan 30 31 30 27 24 25 26 28 29 28 27 26 27 30 32 33 33 32 32 33 32 31 32 35 39 44 51 53 53 55 55 54 56 58 53 46 42 40 43 44 42 37 38 38 37 36 34 nan nan nan nan 35 36 nan nan
nan nan nan nan nan nan nan nan nan nan nan nan nan nan nan nan nan nan nan nan nan nan nan nan nan nan nan nan nan nan nan 32 30 32 30 26 27 29 30 30 29 30 29 31 34 36 37 38 39 39 36 34 35 36 38 41 44 48 51 53 54 56 55 54 56 58 53 48 45 44 47 48 49 47 44 42 41 38 32 nan nan nan nan 37 37 nan nan
nan nan nan nan nan nan nan nan nan nan nan nan nan nan nan nan nan nan nan nan nan nan nan nan nan nan nan nan nan nan nan nan nan nan 29 27 28 29 29 31 32 33 34 35 37 38 40 42 42 43 41 42 43 42 44 47 48 51 54 55 56 58 57 54 53 55 53 52 51 51 49 50 51 49 45 36 27 26 28 nan nan 34 36 39 39 nan nan
nan nan nan nan nan nan nan nan nan nan nan nan nan nan nan nan nan nan nan nan nan nan nan nan nan nan nan nan nan nan nan nan nan 34 31 32 29 29 30 33 34 35 37 38 38 41 41 41 43 43 44 46 48 49 50 50 54 56 58 58 59 60 59 56 54 54 55 54 53 53 51 47 44 41 37 32 28 31 nan nan 33 35 37 40 41 39 nan
nan nan nan nan nan nan nan nan nan nan nan nan nan nan nan nan nan nan nan nan nan nan nan nan nan nan nan nan nan nan nan nan 39 39 38 34 33 34 37 36 36 37 38 40 41 43 43 42 42 43 45 47 50 52 54 55 59 60 61 61 62 62 60 58 55 54 51 51 51 50 nan 41 41 36 34 nan 34 nan 36 34 32 34 38 40 41 41 39
nan nan nan nan nan nan nan nan nan nan 49 nan nan nan nan 37 41 39 nan 33 nan nan nan nan nan nan nan nan nan nan nan nan nan 41 41 40 38 37 38 38 40 39 37 40 43 44 45 44 42 44 46 50 52 54 57 59 61 62 62 62 62 60 58 58 56 54 53 51 49 48 44 44 44 38 nan 32 32 nan 30 29 30 34 36 37 39 40 40
nan nan nan nan 34 34 nan nan nan nan 48 nan nan nan nan 38 41 39 nan 37 40 nan nan nan nan nan nan nan nan nan nan nan nan 36 39 40 40 40 38 41 44 45 43 45 44 45 45 44 46 48 50 52 54 56 57 60 61 61 61 62 61 59 59 58 57 55 53 51 47 45 43 43 41 nan nan nan nan 26 25 27 28 30 33 36 37 37 38
nan nan nan 38 35 32 31 nan 35 nan 42 nan nan nan 37 40 39 42 44 40 41 nan nan nan nan nan nan 35 35 38 nan 38 37 36 37 38 39 42 46 50 52 52 50 48 47 47 46 47 48 50 52 54 55 56 58 59 59 58 60 60 61 59 56 55 55 53 51 49 47 45 43 41 41 36 32 27 nan 24 26 28 30 31 35 37 37 35 35
nan nan 33 nan 32 30 32 33 33 nan nan nan nan 38 37 36 41 45 46 45 45 nan 54 53 48 43 43 41 42 47 47 43 37 38 39 43 46 46 48 51 53 54 54 53 53 51 50 50 52 54 55 56 57 58 58 56 55 58 60 60 58 56 53 52 51 51 49 47 44 44 45 43 39 34 31 27 25 27 31 33 35 36 40 42 39 34 32
nan nan nan 34 33 32 43 nan 36 nan 39 nan nan 39 37 36 39 47 48 46 41 46 48 47 45 45 48 51 51 51 51 53 51 49 48 48 48 48 50 54 53 57 56 53 52 50 51 53 55 57 58 59 59 58 56 55 57 57 57 56 54 52 51 50 50 50 49 49 47 44 42 38 34 33 36 33 30 32 36 37 39 42 45 44 39 33 31
nan nan nan nan 31 32 39 39 39 nan nan nan nan 41 43 37 38 43 45 44 39 40 42 40 42 43 46 46 48 50 50 53 53 53 51 51 52 54 56 58 58 59 57 54 54 53 53 55 57 58 59 60 59 59 58 57 56 54 52 50 50 49 49 48 49 48 48 48 47 43 41 38 33 31 33 32 32 36 41 43 45 46 45 42 37 33 31
nan nan nan 33 33 35 nan nan nan nan nan nan nan 42 44 44 nan 32 37 36 36 37 40 41 42 45 43 44 46 48 45 48 50 52 51 52 55 55 57 57 54 54 57 57 56 55 56 57 58 58 58 61 62 62 58 55 52 49 48 48 48 47 47 47 47 47 48 47 45 43 40 37 31 29 29 32 35 40 45 47 48 47 42 38 34 33 33
nan nan nan 37 nan nan 48 nan nan nan nan nan nan nan 45 nan nan nan nan 31 32 32 33 41 38 38 37 42 41 42 43 44 44 45 48 50 51 53 54 54 56 57 56 57 59 61 62 61 59 59 61 63 62 58 53 49 47 46 47 47 47 46 47 47 47 47 46 44 42 40 38 35 32 33 35 38 40 44 46 48 50 46 39 35 33 35 38
nan nan nan nan nan nan nan nan nan nan nan nan nan nan nan nan nan nan nan nan nan nan nan nan 39 nan 38 40 39 38 40 42 42 45 49 51 53 55 56 56 59 60 60 61 63 66 65 62 61 62 62 57 53 49 46 45 46 46 47 47 47 46 46 46 45 45 44 42 42 41 41 39 36 37 40 42 44 46 49 52 50 43 37 35 38 42 46
nan nan nan nan nan nan nan nan nan nan nan nan nan nan nan nan nan nan nan nan nan nan nan nan nan nan 37 40 39 39 39 42 45 49 51 52 54 56 60 59 60 60 60 60 62 63 62 57 54 51 47 44 43 43 44 44 45 46 46 46 46 45 44 43 42 42 42 43 44 43 43 42 40 41 43 44 46 49 51 50 46 41 40 43 47 49 49
nan nan nan nan nan nan nan nan nan nan nan nan nan nan nan nan nan nan 49 47 44 nan nan nan nan nan nan nan nan nan 40 42 44 46 nan 47 49 52 56 58 60 61 61 61 59 55 50 46 42 40 40 41 42 43 42 42 42 43 42 42 42 45 46 46 45 44 43 43 45 47 48 46 44 44 45 45 49 51 48 45 43 44 48 50 50 49 47
nan nan nan nan nan nan nan nan nan nan nan nan nan nan nan nan nan nan nan nan nan nan nan nan nan nan nan nan nan nan 43 43 41 41 44 46 49 49 48 48 52 56 58 55 48 43 40 39 40 41 42 42 41 41 42 42 42 42 43 44 45 45 46 47 46 46 46 48 51 51 48 45 43 45 50 49 44 43 45 49 54 53 51 49 48 45 44
nan 38 42 nan nan nan nan nan nan nan nan nan nan nan nan nan nan nan nan nan nan nan nan nan 51 48 46 44 45 47 46 44 41 40 39 40 40 42 42 42 39 41 42 39 34 33 35 37 38 39 39 39 40 41 41 41 43 44 45 46 45 46 48 48 48 47 46 46 45 43 40 40 40 40 40 43 47 50 53 55 55 54 52 48 44 41 38
nan 39 nan nan nan nan nan nan nan nan nan nan nan nan nan nan nan nan nan nan nan nan nan nan nan 50 48 46 47 46 43 42 40 38 37 37 37 38 40 38 33 32 32 31 31 33 35 36 37 37 38 38 39 41 42 42 44 45 46 48 48 48 47 44 42 41 40 40 40 36 nan nan 42 44 46 48 50 53 56 56 55 53 50 46 40 nan nan
nan nan nan 49 nan nan nan nan nan nan nan nan nan nan nan nan nan nan nan nan nan nan nan nan nan nan nan nan nan 42 39 37 37 38 38 38 38 38 36 36 34 32 31 32 33 35 36 37 38 38 39 38 40 42 44 45 46 48 49 49 49 49 48 nan 34 42 43 43 42 43 45 47 49 50 50 50 50 49 nan 53 53 50 45 41 nan nan nan
nan nan nan nan nan nan nan nan nan nan nan nan nan nan nan nan nan nan nan nan nan nan nan nan nan nan nan nan nan nan nan 43 41 42 41 39 38 36 33 32 32 33 33 34 34 35 37 38 39 40 41 40 42 43 45 45 45 47 48 50 nan nan nan nan 48 49 48 46 47 48 50 51 51 50 48 47 46 48 48 46 44 43 nan nan nan nan nan
nan nan nan 46 nan 44 nan nan nan nan nan nan nan nan nan nan nan nan nan nan nan nan nan nan nan nan nan nan nan nan nan nan 44 46 43 40 35 33 31 30 31 32 33 35 35 36 38 39 40 40 40 40 42 43 45 46 47 47 47 nan nan nan 51 50 49 50 49 50 50 52 52 51 50 48 46 45 46 46 46 46 44 44 44 44 nan nan nan
nan nan nan 34 33 33 33 nan nan nan nan nan nan 29 nan nan 35 nan nan nan nan nan nan nan nan nan nan nan nan nan nan nan nan nan nan nan nan 30 30 31 32 32 33 34 36 36 38 39 40 41 40 41 43 44 46 48 49 51 nan nan nan 49 49 49 48 48 48 49 50 51 52 51 50 48 45 44 44 44 44 44 45 47 48 49 51 nan nan
nan nan nan nan nan nan nan nan nan nan nan nan nan nan nan nan nan nan nan nan nan nan nan nan nan nan nan nan nan nan nan nan nan nan nan nan nan nan 29 31 33 34 36 37 38 38 39 40 42 44 43 43 43 44 48 51 nan nan nan nan 51 51 50 49 49 49 50 51 52 53 52 50 49 47 45 44 45 47 47 47 49 50 51 52 52 nan nan
nan nan nan nan nan nan nan nan nan nan nan nan nan nan nan nan nan nan nan nan nan nan nan nan nan nan nan nan nan nan nan nan nan nan nan nan nan nan nan 37 39 39 40 40 40 40 41 43 46 47 46 46 47 48 nan nan nan nan nan nan 52 51 50 nan nan 51 52 52 51 50 47 47 46 47 45 45 45 48 49 49 50 51 50 nan nan nan nan
nan nan nan nan nan nan nan nan nan nan nan nan nan nan nan nan nan nan nan nan nan nan nan nan nan nan nan nan nan nan nan nan nan nan nan nan nan nan nan 39 41 40 40 40 43 46 47 47 47 47 46 48 50 48 nan nan nan nan 52 51 51 nan nan nan nan nan nan 53 51 49 49 49 49 48 46 44 44 46 46 47 48 nan nan nan nan nan nan
nan nan nan nan nan nan nan nan nan nan nan nan nan nan nan nan nan nan nan nan nan nan nan nan nan nan nan nan nan nan nan nan nan nan nan nan nan nan nan nan nan 38 41 45 47 48 48 47 45 43 46 48 49 50 nan nan 50 52 52 52 nan nan nan nan nan nan nan 51 51 51 50 50 48 46 45 44 43 44 nan nan nan nan nan nan nan nan nan
nan nan nan nan nan nan nan nan nan nan nan nan nan nan nan nan nan nan nan nan nan nan nan nan nan nan nan nan nan nan nan nan nan nan nan nan nan nan nan nan nan nan 43 45 46 46 47 48 45 46 46 nan 51 nan nan nan 48 54 54 54 54 53 53 53 54 52 50 49 49 nan nan nan nan nan 44 nan nan nan nan nan nan nan nan nan nan nan nan
nan nan nan nan nan nan nan nan nan nan nan nan nan nan nan nan nan nan nan nan nan nan nan nan nan nan nan nan nan nan nan nan nan nan nan nan nan nan nan nan nan nan nan 47 48 46 45 47 49 49 49 50 51 51 49 50 53 52 52 52 53 nan nan 51 50 48 48 48 48 nan nan nan nan nan nan nan nan nan nan nan nan nan nan nan nan nan nan
nan nan nan nan nan nan nan nan nan nan nan nan nan nan nan nan nan nan nan nan nan nan nan nan nan nan nan nan nan nan nan nan nan nan nan nan nan nan nan nan nan nan nan nan 44 45 47 48 48 49 50 50 50 49 50 53 53 51 49 50 52 nan nan nan nan 47 47 nan nan nan nan nan nan nan nan nan nan nan nan nan nan nan nan nan nan nan nan
nan nan nan nan nan nan nan nan nan nan nan nan nan nan nan nan nan nan nan nan nan nan nan nan nan nan nan nan nan nan nan nan nan nan nan nan nan nan nan nan nan nan nan nan nan nan 45 44 47 50 50 49 50 49 nan nan 47 45 44 nan 46 46 46 45 46 47 nan nan nan nan nan nan nan nan nan nan nan nan nan nan nan nan nan nan nan nan nan
nan nan nan nan nan nan nan nan nan nan nan nan nan nan nan nan nan nan nan nan nan nan nan nan nan nan nan nan nan nan nan nan nan nan nan nan nan nan nan nan nan nan nan nan nan nan nan 43 42 48 46 46 45 43 40 43 42 42 42 nan 41 42 44 nan nan nan nan nan nan nan nan nan nan nan nan nan nan nan nan nan nan nan nan nan nan nan nan
nan nan nan nan nan nan nan nan nan nan nan nan nan nan nan nan nan nan nan nan nan nan nan nan nan nan nan nan nan nan nan nan nan nan nan nan nan nan nan nan nan nan nan nan nan nan 47 50 51 41 nan nan 39 38 38 42 42 41 40 40 nan nan nan nan nan nan nan nan nan nan nan nan nan nan nan nan nan nan nan nan nan nan nan nan nan nan nan
nan nan nan nan nan nan nan nan nan nan nan nan nan nan nan nan nan nan nan nan nan nan nan nan nan nan nan nan nan nan nan nan nan nan nan nan nan nan nan nan nan nan nan nan nan nan 47 nan nan nan nan nan nan 36 39 42 40 36 nan nan nan nan nan nan nan nan nan nan nan nan nan nan nan nan nan nan nan nan nan nan nan nan nan nan nan nan nan
nan nan nan nan nan nan nan nan nan nan nan nan nan nan nan nan nan nan nan nan nan nan nan nan nan nan nan nan nan nan nan nan nan nan nan nan nan nan nan nan nan nan nan nan nan nan 45 nan nan nan nan nan 38 42 41 39 36 nan nan nan nan nan nan nan nan nan nan nan nan nan nan nan nan nan nan nan nan nan nan nan nan nan nan nan nan nan nan
nan nan nan nan nan nan nan nan nan nan nan nan nan nan nan nan nan nan nan nan nan nan nan nan nan nan nan nan nan nan nan nan nan nan nan nan nan nan nan nan nan nan nan nan nan nan nan nan nan nan nan 39 41 45 45 44 nan nan nan nan nan nan nan nan nan nan nan nan nan nan nan nan nan nan nan nan nan nan nan nan nan nan nan nan nan nan nan
nan nan nan nan nan nan nan nan nan nan nan nan nan nan nan nan nan nan nan nan nan nan nan nan nan nan nan nan nan nan nan nan nan nan nan nan nan nan nan nan nan nan nan 36 36 nan nan nan nan nan nan nan nan nan nan nan nan nan nan nan nan nan nan nan nan nan nan nan nan nan nan nan nan nan nan nan nan nan nan nan nan nan nan nan nan nan nan
nan nan nan nan nan nan nan nan nan nan nan nan nan nan nan nan nan nan nan nan nan nan nan nan nan nan nan nan nan nan nan nan nan nan nan nan nan nan nan nan nan nan nan nan nan nan nan nan nan nan nan nan nan nan nan nan nan nan nan nan nan nan nan nan nan nan nan nan nan nan nan nan nan nan nan nan nan nan nan nan nan nan nan nan nan nan nan
nan nan nan nan nan nan nan nan nan nan nan nan nan nan nan nan nan nan nan nan nan nan nan nan nan nan nan nan nan nan nan nan nan nan nan nan nan nan nan nan nan nan 24 26 nan nan nan nan nan nan nan nan nan nan nan nan nan nan nan nan nan nan nan nan nan nan nan nan nan nan nan nan nan nan nan nan nan nan nan nan nan nan nan nan nan nan nan
nan nan nan nan nan nan nan nan nan nan nan nan nan nan nan nan nan nan nan nan nan nan nan nan nan nan nan nan nan nan nan nan nan nan nan nan nan nan nan nan nan nan 21 23 nan nan nan nan nan nan 22 27 nan nan nan nan nan nan nan nan nan nan nan nan nan nan nan nan nan nan nan nan nan nan nan nan nan nan nan nan nan nan nan nan nan nan nan
nan nan nan nan nan nan nan nan nan nan nan nan nan nan nan nan nan nan nan nan nan nan nan nan nan nan nan nan nan nan nan nan nan nan nan nan nan nan nan nan 20 21 22 22 23 nan nan nan nan nan 17 21 nan nan nan nan nan nan nan nan nan nan nan nan nan nan nan nan nan nan nan nan nan nan nan nan nan nan nan nan nan nan nan nan nan nan nan
nan nan nan nan nan nan nan nan nan nan nan nan nan nan nan nan nan nan nan nan nan nan nan nan nan nan nan nan nan nan nan nan nan nan nan nan nan nan 18 18 20 20 23 23 21 nan nan nan nan nan 17 19 26 nan nan nan nan nan nan nan nan nan nan nan nan nan nan nan nan nan nan nan nan nan nan nan nan nan nan nan nan nan nan nan nan nan nan
nan nan nan nan nan nan nan nan nan nan nan nan nan nan nan nan nan nan nan nan nan nan nan nan nan nan nan nan nan nan nan nan nan nan nan nan nan nan nan 23 22 26 25 20 20 nan nan nan nan nan nan 20 nan nan nan nan nan nan nan nan nan nan nan nan nan nan nan nan nan nan nan nan nan nan nan nan nan nan nan nan nan nan nan nan nan nan nan
nan nan nan nan nan nan nan nan nan nan nan nan nan nan nan nan nan nan nan nan nan nan nan nan nan nan nan nan nan nan nan nan nan nan nan nan nan nan nan nan 19 21 23 nan nan nan nan nan nan nan nan 21 nan nan nan nan nan nan nan nan nan nan nan nan nan nan nan nan nan nan nan nan nan nan nan nan nan nan nan nan nan nan nan nan nan nan nan
nan nan nan nan nan nan nan nan nan nan nan nan nan nan nan nan nan nan nan nan nan nan nan nan nan nan nan nan nan nan nan nan nan nan nan nan 17 nan nan nan nan 19 20 nan nan nan nan nan nan nan nan 22 nan nan nan nan nan nan nan nan nan nan nan nan nan nan nan nan nan nan nan nan nan nan nan nan nan nan nan nan nan nan nan nan nan nan nan
nan nan nan nan nan nan nan nan nan nan nan nan nan nan nan nan nan nan nan nan nan nan nan nan nan nan nan nan nan nan nan nan nan nan nan nan 16 16 17 19 nan nan 19 19 nan nan nan nan nan nan nan nan nan nan nan nan nan nan nan nan nan nan nan nan nan nan nan nan nan nan nan nan nan nan nan nan nan nan nan nan nan nan nan nan nan nan nan
nan nan nan nan nan nan nan nan nan nan nan nan nan nan nan nan nan nan nan nan nan nan nan nan nan nan nan nan nan nan nan nan nan nan 17 16 16 16 16 16 18 18 nan nan nan nan nan nan nan nan nan nan nan nan nan nan nan nan nan nan nan nan nan nan nan nan nan nan nan nan nan nan nan nan nan nan nan nan nan nan nan nan nan nan nan nan nan
Wind_Direction
nan nan nan nan nan nan nan nan nan nan nan nan nan nan nan nan nan nan nan nan nan nan nan nan nan nan nan nan nan nan nan nan nan nan nan nan nan nan nan nan nan 309 317 321 325 326 327 320 321 323 321 324 321 318 316 309 308 311 309 314 319 318 315 308 293 280 275 276 280 276 279 285 284 287 295 299 300 nan nan nan nan nan nan nan nan nan nan
nan nan nan nan nan nan nan nan nan nan nan nan nan nan nan nan nan nan nan nan nan nan nan nan nan nan nan nan nan nan nan nan nan nan nan nan nan nan nan nan nan 311 318 318 320 320 316 319 321 318 318 321 323 323 321 315 313 310 308 315 317 310 300 286 281 284 287 293 297 290 288 nan 284 288 294 294 294 nan nan nan nan nan nan nan nan nan nan
nan nan nan nan nan nan nan nan nan nan nan nan nan nan nan nan nan nan nan nan nan nan nan nan nan nan nan nan nan nan nan nan nan nan nan 310 314 310 299 293 299 308 311 308 303 307 315 318 323 321 320 322 323 326 324 319 318 314 314 315 303 294 295 300 303 300 298 301 305 292 nan nan 286 290 293 292 294 296 292 nan nan nan nan nan nan nan nan
nan nan nan nan nan nan nan nan nan nan nan nan nan nan nan nan nan nan nan nan nan nan nan nan nan nan nan nan nan nan nan nan nan nan 309 313 304 296 296 296 294 297 302 302 306 313 315 317 317 316 316 319 322 329 326 325 324 317 314 305 302 307 315 314 310 308 305 304 298 284 283 288 290 292 293 293 295 297 294 nan nan nan nan nan nan nan nan
nan nan nan nan nan nan nan nan nan nan nan nan nan nan nan nan nan nan nan nan nan nan nan nan nan nan nan nan nan nan nan 271 288 299 300 295 292 294 291 nan 297 302 305 307 310 311 306 308 312 318 315 314 323 325 324 324 309 310 309 308 311 314 314 313 316 313 310 306 295 294 293 294 293 289 289 289 292 291 298 nan nan nan nan nan nan nan nan
nan nan nan nan nan nan nan nan nan nan nan nan nan nan nan nan nan nan nan nan nan nan nan nan nan nan nan nan nan nan nan nan 280 274 279 287 291 288 287 291 299 302 298 294 296 298 300 303 308 303 305 315 318 310 305 299 306 306 307 311 312 314 314 313 313 314 315 307 306 308 298 294 296 297 290 291 289 286 288 nan nan nan nan 300 299 nan nan
nan nan nan nan nan nan nan nan nan nan nan nan nan nan nan nan nan nan nan nan nan nan nan nan nan nan nan nan nan nan nan 268 274 283 281 280 283 289 289 288 290 292 293 288 288 294 299 301 301 303 303 305 301 302 304 303 302 304 307 312 315 316 315 316 315 315 318 321 321 313 305 304 299 292 292 293 289 284 289 nan nan nan nan 301 300 nan nan
nan nan nan nan nan nan nan nan nan nan nan nan nan nan nan nan nan nan nan nan nan nan nan nan nan nan nan nan nan nan nan nan nan nan 282 285 284 285 284 287 288 288 289 292 293 291 289 295 301 304 305 301 302 302 299 302 305 308 311 316 318 317 316 317 316 317 321 321 322 317 311 302 295 290 290 294 291 289 299 nan nan 302 301 300 303 nan nan
nan nan nan nan nan nan nan nan nan nan nan nan nan nan nan nan nan nan nan nan nan nan nan nan nan nan nan nan nan nan nan nan nan 264 273 281 281 276 274 277 281 281 283 285 287 286 290 293 296 302 300 301 302 300 303 305 307 310 313 316 318 318 318 320 320 319 319 321 322 317 309 303 297 294 295 293 285 292 nan nan 305 305 305 303 301 303 nan
nan nan nan nan nan nan nan nan nan nan nan nan nan nan nan nan nan nan nan nan nan nan nan nan nan nan nan nan nan nan nan nan 249 251 258 258 258 260 267 270 273 273 273 274 280 286 289 290 293 294 297 298 299 301 303 305 307 310 313 316 318 320 321 318 314 315 318 317 316 311 nan 309 301 293 289 nan 285 nan 306 305 303 305 303 302 304 303 303
nan nan nan nan nan nan nan nan nan nan 218 nan nan nan nan 230 223 223 nan 236 nan nan nan nan nan nan nan nan nan nan nan nan nan 249 248 252 255 258 258 260 260 262 265 272 278 280 283 287 290 292 294 296 299 301 303 305 307 310 314 315 316 318 314 309 310 312 312 314 316 317 320 316 306 296 nan 292 288 nan 298 300 304 303 303 304 304 302 303
nan nan nan nan 229 231 nan nan nan nan 217 nan nan nan nan 229 222 229 nan 236 244 nan nan nan nan nan nan nan nan nan nan nan nan 245 249 250 253 256 264 266 269 270 269 268 271 278 283 286 287 290 293 297 300 302 302 304 307 310 313 314 312 305 303 306 308 311 314 317 318 318 320 315 301 nan nan nan nan 288 296 303 309 308 307 306 306 302 300
nan nan nan 221 224 226 225 nan 210 nan 222 nan nan nan 225 227 229 237 242 239 246 nan nan nan nan nan nan 244 242 242 nan 245 242 246 251 257 259 261 262 265 269 271 272 275 279 279 280 283 286 289 292 295 298 298 301 303 309 310 307 303 302 301 301 303 306 311 313 315 318 317 311 307 301 294 287 282 nan 285 301 307 311 312 314 312 307 301 298
nan nan 222 nan 226 230 220 209 211 nan nan nan nan 227 232 233 237 241 245 247 246 nan 249 248 243 237 233 237 242 243 242 247 245 242 246 250 252 255 260 265 270 274 275 278 279 277 278 284 287 290 291 293 294 297 299 305 304 298 300 300 299 298 300 303 305 307 309 309 311 310 307 303 297 291 282 278 280 293 302 309 313 315 314 313 309 302 296
nan nan nan 223 230 225 220 nan 219 nan 236 nan nan 242 238 239 240 244 241 243 242 252 255 255 255 251 246 244 247 252 251 249 248 248 250 253 259 261 264 264 266 272 274 275 276 279 280 282 285 288 290 292 293 295 299 297 294 296 296 297 297 296 297 300 302 304 304 307 309 310 310 305 295 286 280 278 281 292 303 308 310 312 312 311 307 300 295
nan nan nan nan 219 209 205 217 229 nan nan nan nan 252 250 245 249 252 251 246 247 253 258 258 254 254 255 255 258 259 257 256 255 255 256 256 259 262 263 266 270 273 275 276 276 275 277 279 281 284 288 289 291 294 295 291 292 292 292 293 294 294 295 298 298 300 304 306 308 312 314 307 296 287 279 273 275 290 299 302 305 309 309 306 301 296 293
nan nan nan 196 209 211 nan nan nan nan nan nan nan 242 249 253 nan 245 250 247 247 253 260 258 258 258 259 261 261 263 262 259 258 259 260 261 263 264 265 267 269 272 279 281 279 277 277 278 279 281 282 287 291 294 292 289 289 288 288 291 293 294 295 296 297 298 299 301 306 312 314 308 295 281 272 270 277 288 294 296 302 307 305 301 298 294 293
nan nan nan 192 nan nan 211 nan nan nan nan nan nan nan 239 nan nan nan nan 231 233 238 247 256 251 256 259 258 255 255 255 257 257 259 260 261 264 268 270 270 272 275 276 278 281 282 280 278 278 280 280 285 290 290 286 284 283 284 287 290 292 294 294 295 295 296 298 300 304 308 309 305 295 280 277 279 286 290 293 296 301 304 300 295 293 293 296
nan nan nan nan nan nan nan nan nan nan nan nan nan nan nan nan nan nan nan nan nan nan nan nan 246 nan 245 247 247 250 253 253 256 262 266 268 269 270 271 272 275 276 278 280 284 286 286 283 283 281 279 278 280 282 281 281 282 285 287 290 291 292 294 293 294 296 299 301 302 302 302 299 291 281 276 280 285 289 291 294 295 293 288 289 291 295 298
nan nan nan nan nan nan nan nan nan nan nan nan nan nan nan nan nan nan nan nan nan nan nan nan nan nan 243 249 251 253 258 262 266 271 274 276 276 279 281 279 278 279 279 281 283 285 284 283 282 279 274 272 275 276 278 282 284 287 289 292 293 293 293 293 294 296 298 302 302 297 294 291 284 274 270 274 279 284 287 288 288 286 288 290 294 297 297
nan nan nan nan nan nan nan nan nan nan nan nan nan nan nan nan nan nan 239 239 240 nan nan nan nan nan nan nan nan nan 267 269 273 277 nan 280 282 283 285 285 285 284 281 280 280 279 276 277 278 274 272 272 275 279 281 281 284 288 289 289 288 288 288 288 288 289 293 294 291 287 283 277 268 261 261 267 272 276 274 277 283 288 291 293 295 297 298
nan nan nan nan nan nan nan nan nan nan nan nan nan nan nan nan nan nan nan nan nan nan nan nan nan nan nan nan nan nan 257 259 262 269 274 276 277 281 285 286 282 278 276 276 275 271 268 270 272 272 273 275 275 276 277 279 282 284 283 282 283 286 287 289 289 290 290 287 286 285 283 279 273 267 263 266 269 277 282 283 285 287 289 293 294 295 295
nan 240 245 nan nan nan nan nan nan nan nan nan nan nan nan nan nan nan nan nan nan nan nan nan 247 251 254 254 258 258 258 262 271 276 278 279 279 278 282 286 284 280 277 273 270 266 266 268 270 272 274 276 277 279 279 281 283 284 283 280 281 283 283 284 288 287 289 289 289 289 287 284 280 279 278 274 272 276 283 287 287 287 289 293 295 296 296
nan 238 nan nan nan nan nan nan nan nan nan nan nan nan nan nan nan nan nan nan nan nan nan nan nan 252 255 256 257 256 258 261 263 267 272 273 273 272 273 277 282 283 280 275 272 272 271 271 272 274 276 278 280 280 281 280 279 281 283 284 284 284 286 289 294 293 291 292 293 289 nan nan 283 285 286 286 285 283 284 283 283 286 290 291 292 nan nan
nan nan nan 242 nan nan nan nan nan nan nan nan nan nan nan nan nan nan nan nan nan nan nan nan nan nan nan nan nan 258 260 262 264 266 267 266 265 267 269 273 277 279 278 275 273 273 274 275 276 277 278 280 282 284 285 286 287 285 284 284 283 282 283 nan 285 286 288 290 289 286 286 286 286 287 288 289 290 290 nan 282 285 289 290 290 nan nan nan
nan nan nan nan nan nan nan nan nan nan nan nan nan nan nan nan nan nan nan nan nan nan nan nan nan nan nan nan nan nan nan 255 258 262 262 264 266 270 272 274 277 278 278 276 276 276 277 279 280 282 284 286 286 286 287 287 288 286 288 289 nan nan nan nan 291 289 290 290 287 286 286 286 288 288 288 287 288 289 291 292 293 292 nan nan nan nan nan
nan nan nan 224 nan 228 nan nan nan nan nan nan nan nan nan nan nan nan nan nan nan nan nan nan nan nan nan nan nan nan nan nan 256 257 260 263 267 273 275 274 278 277 278 277 279 281 283 282 283 284 287 288 287 286 287 288 286 285 285 nan nan nan 290 287 287 288 289 288 287 287 288 288 289 289 290 292 292 295 298 298 299 298 296 294 nan nan nan
nan nan nan 233 225 227 229 nan nan nan nan nan nan 235 nan nan 235 nan nan nan nan nan nan nan nan nan nan nan nan nan nan nan nan nan nan nan nan 266 272 275 277 277 277 278 279 280 282 283 284 284 286 285 282 282 278 278 281 283 nan nan nan 284 284 286 285 286 286 287 287 288 289 288 289 290 293 296 297 296 294 294 295 296 295 296 298 nan nan
nan nan nan nan nan nan nan nan nan nan nan nan nan nan nan nan nan nan nan nan nan nan nan nan nan nan nan nan nan nan nan nan nan nan nan nan nan nan 269 275 276 278 278 277 277 278 280 282 282 282 280 276 277 280 282 284 nan nan nan nan 286 285 284 284 285 284 284 284 284 284 284 287 290 292 294 295 294 293 293 292 294 295 296 298 301 nan nan
nan nan nan nan nan nan nan nan nan nan nan nan nan nan nan nan nan nan nan nan nan nan nan nan nan nan nan nan nan nan nan nan nan nan nan nan nan nan nan 273 271 270 273 276 279 279 279 277 275 279 280 277 277 280 nan nan nan nan nan nan 286 286 285 nan nan 286 286 286 285 286 288 292 294 296 297 296 294 292 293 294 296 297 299 nan nan nan nan
nan nan nan nan nan nan nan nan nan nan nan nan nan nan nan nan nan nan nan nan nan nan nan nan nan nan nan nan nan nan nan nan nan nan nan nan nan nan nan 274 276 278 279 279 278 277 275 274 275 277 278 279 280 282 nan nan nan nan 282 284 286 nan nan nan nan nan nan 286 286 286 289 292 295 296 297 297 295 293 294 296 297 nan nan nan nan nan nan
nan nan nan nan nan nan nan nan nan nan nan nan nan nan nan nan nan nan nan nan nan nan nan nan nan nan nan nan nan nan nan nan nan nan nan nan nan nan nan nan nan 270 273 275 278 280 281 281 281 280 276 278 280 281 nan nan 285 285 285 284 nan nan nan nan nan nan nan 285 286 288 290 292 293 295 297 297 296 296 nan nan nan nan nan nan nan nan nan
nan nan nan nan nan nan nan nan nan nan nan nan nan nan nan nan nan nan nan nan nan nan nan nan nan nan nan nan nan nan nan nan nan nan nan nan nan nan nan nan nan nan 274 278 281 283 284 286 285 282 281 nan 281 nan nan nan 281 281 283 284 284 285 284 283 284 284 284 285 287 nan nan nan nan nan 297 nan nan nan nan nan nan nan nan nan nan nan nan
nan nan nan nan nan nan nan nan nan nan nan nan nan nan nan nan nan nan nan nan nan nan nan nan nan nan nan nan nan nan nan nan nan nan nan nan nan nan nan nan nan nan nan 276 277 278 279 280 280 280 279 280 280 280 280 280 278 279 281 282 283 nan nan 282 283 283 284 286 288 nan nan nan nan nan nan nan nan nan nan nan nan nan nan nan nan nan nan
nan nan nan nan nan nan nan nan nan nan nan nan nan nan nan nan nan nan nan nan nan nan nan nan nan nan nan nan nan nan nan nan nan nan nan nan nan nan nan nan nan nan nan nan 274 274 275 278 282 283 283 282 282 282 281 281 283 285 286 284 284 nan nan nan nan 286 288 nan nan nan nan nan nan nan nan nan nan nan nan nan nan nan nan nan nan nan nan
nan nan nan nan nan nan nan nan nan nan nan nan nan nan nan nan nan nan nan nan nan nan nan nan nan nan nan nan nan nan nan nan nan nan nan nan nan nan nan nan nan nan nan nan nan nan 274 279 285 287 285 284 281 280 nan nan 279 280 281 nan 284 284 284 286 287 288 nan nan nan nan nan nan nan nan nan nan nan nan nan nan nan nan nan nan nan nan nan
nan nan nan nan nan nan nan nan nan nan nan nan nan nan nan nan nan nan nan nan nan nan nan nan nan nan nan nan nan nan nan nan nan nan nan nan nan nan nan nan nan nan nan nan nan nan nan 277 282 285 283 284 285 284 284 285 283 283 282 nan 281 284 286 nan nan nan nan nan nan nan nan nan nan nan nan nan nan nan nan nan nan nan nan nan nan nan nan
nan nan nan nan nan nan nan nan nan nan nan nan nan nan nan nan nan nan nan nan nan nan nan nan nan nan nan nan nan nan nan nan nan nan nan nan nan nan nan nan nan nan nan nan nan nan 286 283 276 272 nan nan 285 288 292 294 292 287 284 284 nan nan nan nan nan nan nan nan nan nan nan nan nan nan nan nan nan nan nan nan nan nan nan nan nan nan nan
nan nan nan nan nan nan nan nan nan nan nan nan nan nan nan nan nan nan nan nan nan nan nan nan nan nan nan nan nan nan nan nan nan nan nan nan nan nan nan nan nan nan nan nan nan nan 284 nan nan nan nan nan nan 283 293 298 295 287 nan nan nan nan nan nan nan nan nan nan nan nan nan nan nan nan nan nan nan nan nan nan nan nan nan nan nan nan nan
nan nan nan nan nan nan nan nan nan nan nan nan nan nan nan nan nan nan nan nan nan nan nan nan nan nan nan nan nan nan nan nan nan nan nan nan nan nan nan nan nan nan nan nan nan nan 287 nan nan nan nan nan 268 275 282 290 292 nan nan nan nan nan nan nan nan nan nan nan nan nan nan nan nan nan nan nan nan nan nan nan nan nan nan nan nan nan nan
nan nan nan nan nan nan nan nan nan nan nan nan nan nan nan nan nan nan nan nan nan nan nan nan nan nan nan nan nan nan nan nan nan nan nan nan nan nan nan nan nan nan nan nan nan nan nan nan nan nan nan 273 273 273 276 282 nan nan nan nan nan nan nan nan nan nan nan nan nan nan nan nan nan nan nan nan nan nan nan nan nan nan nan nan nan nan nan
nan nan nan nan nan nan nan nan nan nan nan nan nan nan nan nan nan nan nan nan nan nan nan nan nan nan nan nan nan nan nan nan nan nan nan nan nan nan nan nan nan nan nan 293 295 nan nan nan nan nan nan nan nan nan nan nan nan nan nan nan nan nan nan nan nan nan nan nan nan nan nan nan nan nan nan nan nan nan nan nan nan nan nan nan nan nan nan
nan nan nan nan nan nan nan nan nan nan nan nan nan nan nan nan nan nan nan nan nan nan nan nan nan nan nan nan nan nan nan nan nan nan nan nan nan nan nan nan nan nan nan nan nan nan nan nan nan nan nan nan nan nan nan nan nan nan nan nan nan nan nan nan nan nan nan nan nan nan nan nan nan nan nan nan nan nan nan nan nan nan nan nan nan nan nan
nan nan nan nan nan nan nan nan nan nan nan nan nan nan nan nan nan nan nan nan nan nan nan nan nan nan nan nan nan nan nan nan nan nan nan nan nan nan nan nan nan nan 302 295 nan nan nan nan nan nan nan nan nan nan nan nan nan nan nan nan nan nan nan nan nan nan nan nan nan nan nan nan nan nan nan nan nan nan nan nan nan nan nan nan nan nan nan
nan nan nan nan nan nan nan nan nan nan nan nan nan nan nan nan nan nan nan nan nan nan nan nan nan nan nan nan nan nan nan nan nan nan nan nan nan nan nan nan nan nan 301 301 nan nan nan nan nan nan 305 301 nan nan nan nan nan nan nan nan nan nan nan nan nan nan nan nan nan nan nan nan nan nan nan nan nan nan nan nan nan nan nan nan nan nan nan
nan nan nan nan nan nan nan nan nan nan nan nan nan nan nan nan nan nan nan nan nan nan nan nan nan nan nan nan nan nan nan nan nan nan nan nan nan nan nan nan 296 298 308 308 297 nan nan nan nan nan 304 300 nan nan nan nan nan nan nan nan nan nan nan nan nan nan nan nan nan nan nan nan nan nan nan nan nan nan nan nan nan nan nan nan nan nan nan
nan nan nan nan nan nan nan nan nan nan nan nan nan nan nan nan nan nan nan nan nan nan nan nan nan nan nan nan nan nan nan nan nan nan nan nan nan nan 293 293 302 306 299 298 301 nan nan nan nan nan 300 300 293 nan nan nan nan nan nan nan nan nan nan nan nan nan nan nan nan nan nan nan nan nan nan nan nan nan nan nan nan nan nan nan nan nan nan
nan nan nan nan nan nan nan nan nan nan nan nan nan nan nan nan nan nan nan nan nan nan nan nan nan nan nan nan nan nan nan nan nan nan nan nan nan nan nan 281 289 300 304 302 304 nan nan nan nan nan nan 307 nan nan nan nan nan nan nan nan nan nan nan nan nan nan nan nan nan nan nan nan nan nan nan nan nan nan nan nan nan nan nan nan nan nan nan
nan nan nan nan nan nan nan nan nan nan nan nan nan nan nan nan nan nan nan nan nan nan nan nan nan nan nan nan nan nan nan nan nan nan nan nan nan nan nan nan 282 295 296 nan nan nan nan nan nan nan nan 304 nan nan nan nan nan nan nan nan nan nan nan nan nan nan nan nan nan nan nan nan nan nan nan nan nan nan nan nan nan nan nan nan nan nan nan
nan nan nan nan nan nan nan nan nan nan nan nan nan nan nan nan nan nan nan nan nan nan nan nan nan nan nan nan nan nan nan nan nan nan nan nan 292 nan nan nan nan 294 297 nan nan nan nan nan nan nan nan 300 nan nan nan nan nan nan nan nan nan nan nan nan nan nan nan nan nan nan nan nan nan nan nan nan nan nan nan nan nan nan nan nan nan nan nan
nan nan nan nan nan nan nan nan nan nan nan nan nan nan nan nan nan nan nan nan nan nan nan nan nan nan nan nan nan nan nan nan nan nan nan nan 296 296 298 300 nan nan 303 304 nan nan nan nan nan nan nan nan nan nan nan nan nan nan nan nan nan nan nan nan nan nan nan nan nan nan nan nan nan nan nan nan nan nan nan nan nan nan nan nan nan nan nan
nan nan nan nan nan nan nan nan nan nan nan nan nan nan nan nan nan nan nan nan nan nan nan nan nan nan nan nan nan nan nan nan nan nan 297 301 301 302 296 294 296 300 nan nan nan nan nan nan nan nan nan nan nan nan nan nan nan nan nan nan nan nan nan nan nan nan nan nan nan nan nan nan nan nan nan nan nan nan nan nan nan nan nan nan nan nan nan